This demonstration page uses our WeatherBlox Daily Observations layout. Learn more.

Left ArrowRight Arrow

Hourly Observations for May 15, 2021

Temp ( °F °C ) Dew Point ( °F °C ) Humidity (%) Winds ( mph kmh ) Pressure ( in mb ) Visibility ( mi km ) Precip ( " mm )
12:04 am 00:04 Mostly Cloudy with Nearby Thunderstorms 72 22.2 57 13.9 59 59 SE 12 19 29.93 1013 10 16 0.00 0.00
12:23 am 00:23 Cloudy with Thunderstorms 71 21.7 58 14.4 63 63 SSE 8 13 29.94 1014 10 16 0.00 0.00
9:53 am 09:53 Sunny 70 21.1 60 15.6 71 71 E 9 15 29.87 1012 10 16 0.00 0.00
10:53 am 10:53 Sunny 74 23.3 59 15 60 60 ESE 15 24 29.85 1011 10 16 0.00 0.00
11:53 am 11:53 Sunny 79 26.1 58 14.4 49 49 SE 15 24 29.83 1010 10 16 0.00 0.00
12:53 pm 12:53 Sunny 83 28.3 56 13.3 40 40 SE 9 15 29.82 1010 10 16 0.00 0.00
1:53 pm 13:53 Sunny 86 30 54 12.2 33 33 S 12 19 29.78 1009 10 16 0.00 0.00
2:53 pm 14:53 Sunny 88 31.1 54 12.2 31 31 ESE 10 17 29.74 1007 10 16 0.00 0.00
3:53 pm 15:53 Sunny 90 32.2 51 10.6 26 26 S 9 15 29.70 1006 10 16 0.00 0.00
4:53 pm 16:53 Mostly Sunny 89 31.7 52 11.1 28 28 E 9 15 29.66 1005 10 16 0.00 0.00
5:53 pm 17:53 Sunny 84 28.9 53 11.7 34 34 SE 21 33 29.67 1005 10 16 0.00 0.00
6:53 pm 18:53 Sunny 83 28.3 56 13.3 40 40 SE 15 24 29.66 1004 10 16 0.00 0.00
7:24 pm 19:24 Mostly Cloudy with Nearby Thunderstorms 83 28.3 43 6.1 24 24 SSE 12 19 29.64 1004 10 16 0.00 0.00
7:45 pm 19:45 Windy with Storms Likely 76 24.4 52 11.1 43 43 SW 29 46 29.75 1007 10 16 0.00 0.00
7:53 pm 19:53 Windy with Storms Likely 68 20 56 13.3 65 65 SW 28 44 29.81 1010 6 10 0.00 0.00
8:11 pm 20:11 Cloudy with Light Rain 70 21.1 55 12.8 59 59 S 17 28 29.78 1008 9 14 0.01 0.25
8:53 pm 20:53 Clear 70 21.1 58 14.4 66 66 SSE 8 13 29.74 1007 10 16 0.01 0.25
9:53 pm 21:53 Clear 69 20.6 56 13.3 63 63 E 15 24 29.71 1006 10 16 0.00 0.00
10:53 pm 22:53 Clear 68 20 57 13.9 68 68 SE 14 22 29.79 1009 10 16 0.00 0.00
11:53 pm 23:53 Mostly Clear 67 19.4 59 15 76 76 E 10 17 29.82 1010 10 16 0.00 0.00

Powered by AerisWeather